"Pseudo-MPEC" for P10Lp2F

Created 2019 Jan 13 16:18:31 UT using Find_Orb

Click here for an explanation of pseudo-MPECs

 
 Astrometry: 
     P10Lp2F  C2019 01 11V2r`o%5m[;EJ9naGYmMN,Astrometry:`%MDrbd:9@2ZukIhMehQF51
     P10Lp2F  C2019 01 11-wredacted;FG]%N(w6FkOgq;!F-K54jWemW\bqC`=DwBrYt.e7GF51
     P10Lp2F  C2019 01 11L(q)GtvX0_O-yFQvCIVq16\H]sU_1I3]Q*clickgxXcWB`O!ax*)F51
     P10Lp2F  C2019 01 11[eL@vv-3'lJ7mtQvv8#Nv`6QU4CLobx5^twKiLhere\9DM`X]nK:F51
     P10Lp2F  C2019 01 12.14498 05 08 14.64 -11 24 07.7    ~1C4I 20.3 GVNEOCPI52
     P10Lp2F  C2019 01 12.14594 05 08 15.08 -11 24 22.0    ~1C4I 20.4 GVNEOCPI52
     P10Lp2F  C2019 01 12.14691 05 08 15.54 -11 24 35.8    ~1C4I 19.6 GVNEOCPI52
     P10Lp2F  C2019 01 12.14788 05 08 16.09 -11 24 50.5    ~1C4I 20.0 GVNEOCPI52
     P10Lp2F ^C2019 01 12.32099805 09 40.787-12 06 46.75   ~1CJI 20.50GVNEOCP568
     P10Lp2F ^C2019 01 12.32236005 09 41.386-12 07 06.48   ~1CJI 20.58GVNEOCP568
     P10Lp2F ^C2019 01 12.32336505 09 41.825-12 07 20.98   ~1CJI 20.51GVNEOCP568
     P10Lp2F ^C2019 01 12.32459305 09 42.359-12 07 38.65   ~1CJI 20.48GVNEOCP568
     P10Lp2F |C2019 01 13FP[;8Z+P.(!dq'FdKM%D`bl1i2Vfor!?foG=a[7j^mT/tUt\SxB;807
     P10Lp2F |C2019 01 135_m7Uo.pPe.tI!OYO^-O@`'cUrp+6-@vUexplanationW+J@!T+c807

Station data:
(568) Mauna Kea  (N19.826116 W155.472200)  US/Hawaii.
(807) Cerro Tololo Observatory, La Serena  (S30.169136 W70.805900)  Chile.
   1.5-m Ritchey-Chrétien.
(F51) Pan-STARRS 1, Haleakala  (N20.707235 W156.255910)  US/Hawaii.
   Observers N. Primak, A. Schultz, S. Watters, J. Thiel, T. Goggia. Measurer
   PS1 Science Consortium. 1.8-m Ritchey-Chrétien + CCD.
(I52) Steward Observatory, Mt. Lemmon Station  (N32.442547 W110.788920)
   US/Arizona.  Observers B. M. Africano, E. J. Christensen, G. A. Farneth,
   D. C. Fuls, A. R. Gibbs, A. D. Grauer, H. Groeller, J. A. Johnson, R. A.
   Kowalski, S. M. Larson, G. J. Leonard, R. L. Seaman, F. C. Shelly. 1.0-m
   reflector + CCD.

Orbital elements:  P10Lp2F
   Perihelion 2018 Dec 12.832361 +/- 0.0721 TT = 19:58:36 (JD 2458465.332361)
Epoch 2019 Jan 13.0 TT = JDT 2458496.5   Earth MOID: 0.0278   AutoNEOCP
M  19.25417704 +/- 0.17             (J2000 ecliptic)
n   0.61776181 +/- 0.0043           Peri.  151.53392 +/- 0.049
a   1.36538567 +/- 0.00633          Node   284.88501 +/- 0.010
e   0.2781307 +/- 0.00331           Incl.   20.64439 +/- 0.15
P   1.60/582.74d           H 25.2   G  0.15   U  9.1  
q 0.98562993 +/- 6.31e-5    Q 1.74514141 +/- 0.0125
From 14 observations 2019 Jan. 11-13 (41.0 hr); mean residual 0".34
Residuals in arcseconds: 
190111 F51  .02-  .05+    190112 I52  .40-  .41-    190112 568  .02+  .14+    
190111 F51  .13-  .25+    190112 I52  .20-  .33+    190112 568  .03-  .20+    
190111 F51  .04-  .13+    190112 I52  1.3+  .17+    190113 807  .29-  .12+    
190111 F51  .01+  .49-    190112 568  .00   .18+    190113 807  .15+  .26-    
190112 I52  .36-  .50-    190112 568  .03+  .12+    

Ephemerides (geocentric):
Date (UTC) HH   RA              Dec         delta   r     elong  mag " sig PA
---- -- -- --  -------------   -----------  ------ ------ -----  --- ---- ---
2019 01 13 16  05 19 49.212   -16 50 32.09  .06682 1.0266 128.7 21.2 1.39 172
2019 01 13 17  05 20 06.340   -16 58 14.97  .06706 1.0267 128.6 21.2 1.47 171
2019 01 13 18  05 20 23.373   -17 05 54.25  .06731 1.0268 128.6 21.2 1.56 170
2019 01 13 19  05 20 40.311   -17 13 29.97  .06756 1.0269 128.5 21.2 1.65 170
2019 01 13 20  05 20 57.157   -17 21 02.15  .06781 1.0270 128.4 21.2 1.75 169
2019 01 13 21  05 21 13.911   -17 28 30.84  .06806 1.0271 128.3 21.2 1.84 169
2019 01 13 22  05 21 30.572   -17 35 56.06  .06830 1.0272 128.3 21.2 1.93 168
2019 01 13 23  05 21 47.143   -17 43 17.84  .06855 1.0273 128.2 21.2 2.03 168
2019 01 14 00  05 22 03.624   -17 50 36.22  .06880 1.0274 128.1 21.2 2.12 167
2019 01 14 01  05 22 20.016   -17 57 51.24  .06905 1.0276 128.1 21.3 2.22 167
2019 01 14 02  05 22 36.319   -18 05 02.91  .06930 1.0277 128.0 21.3 2.31 166
2019 01 14 03  05 22 52.535   -18 12 11.27  .06956 1.0278 127.9 21.3 2.41 166
2019 01 14 04  05 23 08.663   -18 19 16.36  .06981 1.0279 127.9 21.3 2.51 165
2019 01 14 05  05 23 24.705   -18 26 18.19  .07006 1.0280 127.8 21.3 2.61 165
2019 01 14 06  05 23 40.661   -18 33 16.81  .07031 1.0281 127.7 21.3 2.71 165
2019 01 14 07  05 23 56.533   -18 40 12.24  .07056 1.0282 127.7 21.3 2.81 164
2019 01 14 08  05 24 12.320   -18 47 04.51  .07082 1.0283 127.6 21.3 2.92 164
2019 01 14 09  05 24 28.023   -18 53 53.65  .07107 1.0284 127.5 21.3 3.02 164
2019 01 14 10  05 24 43.644   -19 00 39.69  .07132 1.0285 127.5 21.3 3.12 164
2019 01 14 11  05 24 59.182   -19 07 22.65  .07158 1.0286 127.4 21.4 3.23 163
2019 01 14 12  05 25 14.639   -19 14 02.58  .07183 1.0287 127.3 21.4 3.33 163
2019 01 14 13  05 25 30.015   -19 20 39.48  .07209 1.0288 127.3 21.4 3.44 163
2019 01 14 14  05 25 45.311   -19 27 13.40  .07234 1.0289 127.2 21.4 3.54 163
2019 01 14 15  05 26 00.527   -19 33 44.36  .07260 1.0290 127.1 21.4 3.65 162
2019 01 14 16  05 26 15.665   -19 40 12.38  .07285 1.0291 127.1 21.4 3.76 162
2019 01 14 17  05 26 30.724   -19 46 37.50  .07311 1.0292 127.0 21.4 3.86 162
2019 01 14 18  05 26 45.705   -19 52 59.73  .07336 1.0293 126.9 21.4 3.97 162
2019 01 14 19  05 27 00.609   -19 59 19.12  .07362 1.0294 126.9 21.4 4.08 162
2019 01 14 20  05 27 15.437   -20 05 35.67  .07388 1.0295 126.8 21.4 4.19 161
2019 01 14 21  05 27 30.189   -20 11 49.43  .07414 1.0296 126.7 21.4 4.30 161
2019 01 14 22  05 27 44.866   -20 18 00.40  .07439 1.0298 126.7 21.5 4.41 161
2019 01 14 23  05 27 59.468   -20 24 08.63  .07465 1.0299 126.6 21.5 4.52 161
2019 01 15 00  05 28 13.997   -20 30 14.13  .07491 1.0300 126.6 21.5 4.63 161
2019 01 15 01  05 28 28.451   -20 36 16.93  .07517 1.0301 126.5 21.5 4.74 160
2019 01 15 02  05 28 42.833   -20 42 17.06  .07543 1.0302 126.4 21.5 4.85 160
2019 01 15 03  05 28 57.143   -20 48 14.53  .07569 1.0303 126.4 21.5 4.96 160
2019 01 15 04  05 29 11.381   -20 54 09.38  .07595 1.0304 126.3 21.5 5.07 160
2019 01 15 05  05 29 25.548   -21 00 01.62  .07621 1.0305 126.3 21.5 5.18 160
2019 01 15 06  05 29 39.644   -21 05 51.29  .07647 1.0306 126.2 21.5 5.30 160
2019 01 15 07  05 29 53.671   -21 11 38.39  .07673 1.0307 126.1 21.5 5.41 160
2019 01 15 08  05 30 07.628   -21 17 22.97  .07699 1.0308 126.1 21.5 5.52 159
2019 01 15 09  05 30 21.515   -21 23 05.03  .07725 1.0309 126.0 21.6 5.63 159
2019 01 15 10  05 30 35.335   -21 28 44.61  .07751 1.0310 126.0 21.6 5.75 159
2019 01 15 11  05 30 49.087   -21 34 21.72  .07777 1.0311 125.9 21.6 5.86 159
2019 01 15 12  05 31 02.771   -21 39 56.39  .07803 1.0312 125.8 21.6 5.97 159
2019 01 15 13  05 31 16.388   -21 45 28.64  .07829 1.0314 125.8 21.6 6.09 159
2019 01 15 14  05 31 29.940   -21 50 58.48  .07856 1.0315 125.7 21.6 6.20 159
2019 01 15 15  05 31 43.425   -21 56 25.96  .07882 1.0316 125.7 21.6 6.32 158